DL9RAN-11 Weather Reports


Display with metric or nautical units.
time (UTC)temp
F
wind
direction
speed
MPH
gust
MPH
rain 1hr
in
rain 24hr
in
rain mn
in
humidity
%
barometer
mb
20260507091629 57 0.0 0.0 0.00 0.00 0.00 71 1016.4
20260507084924 57 0.0 0.0 0.00 0.00 0.00 70 1016.2
20260507084423 57 0.0 0.0 0.00 0.00 0.00 70 1016.1
20260507082821 58 0.0 0.0 0.00 0.00 0.00 70 1016.1
20260507082321 58 0.0 0.0 0.00 0.00 0.00 70 1016.1
20260507080718 58 0.0 0.0 0.00 0.00 0.00 71 1016.0
20260507074544 56 0.0 0.0 0.00 0.00 0.00 74 1015.8
20260507074044 56 0.0 0.0 0.00 0.00 0.00 74 1015.7
20260507073543 55 0.0 0.0 0.00 0.00 0.00 75 1015.6
20260507072512 55 0.0 0.0 0.00 0.00 0.00 75 1015.6
20260507072012 55 0.0 0.0 0.00 0.00 0.00 75 1015.4
20260507070409 54 0.0 0.0 0.00 0.00 0.00 77 1015.4
20260507065338 54 0.0 0.0 0.00 0.00 0.00 77 1015.2
20260507064837 53 0.0 0.0 0.00 0.00 0.00 77 1015.2
20260507063806 53 0.0 0.0 0.00 0.00 0.00 77 1015.2
20260507061632 54 0.0 0.0 0.00 0.00 0.00 77 1015.2
20260507060029 53 0.0 0.0 0.00 0.00 0.00 78 1014.9
20260507054427 53 0.0 0.0 0.00 0.00 0.00 81 1014.7
20260507053355 51 0.0 0.0 0.00 0.00 0.00 81 1014.6
20260507052855 51 0.0 0.0 0.00 0.00 0.00 81 1014.6
20260507045048 50 0.0 0.0 0.00 0.00 0.00 80 1014.3
20260507044016 50 0.0 0.0 0.00 0.00 0.00 80 1014.2
20260507043516 50 0.0 0.0 0.00 0.00 0.00 80 1014.2
20260507041913 50 0.0 0.0 0.00 0.00 0.00 80 1014.1
20260507041413 50 0.0 0.0 0.00 0.00 0.00 80 1014.1
20260507040912 50 0.0 0.0 0.00 0.00 0.00 80 1014.0
20260507035841 50 0.0 0.0 0.00 0.00 0.00 80 1013.9
20260507034810 50 0.0 0.0 0.00 0.00 0.00 80 1013.8
20260507033738 50 0.0 0.0 0.00 0.00 0.00 80 1013.8
20260507031033 50 0.0 0.0 0.00 0.00 0.00 79 1013.7
20260507030533 50 0.0 0.0 0.00 0.00 0.00 79 1013.7
20260507025502 50 0.0 0.0 0.00 0.00 0.00 79 1013.7
20260507023859 51 0.0 0.0 0.00 0.00 0.00 79 1013.5
20260507023359 51 0.0 0.0 0.00 0.00 0.00 79 1013.5
20260507022858 51 0.0 0.0 0.00 0.00 0.00 79 1013.5
20260507022358 51 0.0 0.0 0.00 0.00 0.00 79 1013.5
20260507021858 51 0.0 0.0 0.00 0.00 0.00 79 1013.5
20260507021357 51 0.0 0.0 0.00 0.00 0.00 79 1013.1
20260507015755 52 0.0 0.0 0.00 0.00 0.00 79 1013.1
20260507014723 52 0.0 0.0 0.00 0.00 0.00 79 1013.1
20260507010345 52 0.0 0.0 0.00 0.00 0.00 79 1013.0
20260507005313 52 0.0 0.0 0.00 0.00 0.00 79 1013.0
20260507004813 52 0.0 0.0 0.00 0.00 0.00 79 1013.0
20260507003742 52 0.0 0.0 0.00 0.00 0.00 79 1013.0
20260507003241 53 0.0 0.0 0.00 0.00 0.00 78 1013.0
20260507001639 53 0.0 0.0 0.00 0.00 0.00 78 1013.0
20260506234402 54 0.0 0.0 0.00 0.00 0.00 79 1013.0
20260506232800 54 0.0 0.0 0.00 0.00 0.00 79 1013.0
20260506232300 54 0.0 0.0 0.00 0.00 0.00 79 1013.0
20260506231759 54 0.0 0.0 0.00 0.00 0.00 79 1013.0
20260506225054 55 0.0 0.0 0.00 0.00 0.00 80 1012.8
20260506224023 55 0.0 0.0 0.00 0.00 0.00 80 1012.7
20260506223523 55 0.0 0.0 0.00 0.00 0.00 80 1012.6
20260506220818 55 0.0 0.0 0.00 0.00 0.00 80 1012.4
20260506220317 55 0.0 0.0 0.00 0.00 0.00 80 1012.4
20260506215817 55 0.0 0.0 0.00 0.00 0.00 80 1012.4
20260506214746 55 0.0 0.0 0.00 0.00 0.00 81 1012.2
20260506214246 55 0.0 0.0 0.00 0.00 0.00 80 1012.2
20260506211541 55 0.0 0.0 0.00 0.00 0.00 80 1011.9
20260506204305 56 0.0 0.0 0.00 0.00 0.00 79 1011.9
20260506203804 56 0.0 0.0 0.00 0.00 0.00 79 1011.9
20260506203304 56 0.0 0.0 0.00 0.00 0.00 79 1011.9
20260506200559 57 0.0 0.0 0.00 0.00 0.00 78 1011.6
20260506195528 57 0.0 0.0 0.00 0.00 0.00 79 1011.3
20260506192823 58 0.0 0.0 0.00 0.00 0.00 77 1010.8
20260506190649 58 0.0 0.0 0.00 0.00 0.00 77 1010.1
20260506190149 58 0.0 0.0 0.00 0.00 0.00 77 1010.1
20260506185117 58 0.0 0.0 0.00 0.00 0.00 77 1010.1
20260506184617 58 0.0 0.0 0.00 0.00 0.00 77 1010.1
20260506183545 58 0.0 0.0 0.00 0.00 0.00 77 1009.8
20260506183045 58 0.0 0.0 0.00 0.00 0.00 76 1009.8
20260506182545 58 0.0 0.0 0.00 0.00 0.00 75 1008.8
20260506182044 58 0.0 0.0 0.00 0.00 0.00 75 1008.8
20260506181013 58 0.0 0.0 0.00 0.00 0.00 75 1008.8
20260506175942 58 0.0 0.0 0.00 0.00 0.00 75 1008.8
20260506175441 58 0.0 0.0 0.00 0.00 0.00 75 1009.3
20260506173839 60 0.0 0.0 0.00 0.00 0.00 70 1009.3
20260506171705 60 0.0 0.0 0.00 0.00 0.00 68 1009.7
20260506171205 61 0.0 0.0 0.00 0.00 0.00 67 1009.7
20260506170133 61 0.0 0.0 0.00 0.00 0.00 67 1010.1
20260506165102 64 0.0 0.0 0.00 0.00 0.00 67 1010.1
20260506164602 64 0.0 0.0 0.00 0.00 0.00 65 1009.7
20260506163530 66 0.0 0.0 0.00 0.00 0.00 61 1008.6
20260506163030 66 0.0 0.0 0.00 0.00 0.00 56 1008.6
20260506161427 67 0.0 0.0 0.00 0.00 0.00 55 1007.8
20260506160356 68 0.0 0.0 0.00 0.00 0.00 53 1007.8
20260506155324 68 0.0 0.0 0.00 0.00 0.00 51 1007.6
20260506154824 69 0.0 0.0 0.00 0.00 0.00 51 1007.4
20260506154324 69 0.0 0.0 0.00 0.00 0.00 51 1007.4
20260506153252 69 0.0 0.0 0.00 0.00 0.00 51 1007.5
20260506152752 70 0.0 0.0 0.00 0.00 0.00 51 1007.6
20260506151720 70 0.0 0.0 0.00 0.00 0.00 50 1007.6
20260506151220 70 0.0 0.0 0.00 0.00 0.00 50 1007.7
20260506144515 70 0.0 0.0 0.00 0.00 0.00 51 1008.1
20260506143444 70 0.0 0.0 0.00 0.00 0.00 51 1008.3
20260506142944 70 0.0 0.0 0.00 0.00 0.00 51 1008.3
20260506142443 70 0.0 0.0 0.00 0.00 0.00 51 1008.3
20260506141942 70 0.0 0.0 0.00 0.00 0.00 51 1008.3
20260506135238 69 0.0 0.0 0.00 0.00 0.00 52 1008.6
20260506133104 69 0.0 0.0 0.00 0.00 0.00 53 1008.6
20260506132604 68 0.0 0.0 0.00 0.00 0.00 53 1009.0
20260506131532 68 0.0 0.0 0.00 0.00 0.00 54 1009.0
20260506130501 68 0.0 0.0 0.00 0.00 0.00 53 1009.0
20260506130000 68 0.0 0.0 0.00 0.00 0.00 54 1009.0
20260506124929 68 0.0 0.0 0.00 0.00 0.00 53 1009.0
20260506120550 68 0.0 0.0 0.00 0.00 0.00 54 1009.7
20260506113845 69 0.0 0.0 0.00 0.00 0.00 53 1010.0
20260506113344 69 0.0 0.0 0.00 0.00 0.00 54 1010.1
20260506112313 69 0.0 0.0 0.00 0.00 0.00 53 1010.4
20260506111813 69 0.0 0.0 0.00 0.00 0.00 54 1010.4
20260506111312 69 0.0 0.0 0.00 0.00 0.00 54 1010.4
20260506110812 69 0.0 0.0 0.00 0.00 0.00 54 1010.7
20260506105209 68 0.0 0.0 0.00 0.00 0.00 55 1010.6
20260506104709 68 0.0 0.0 0.00 0.00 0.00 55 1010.7
20260506103637 68 0.0 0.0 0.00 0.00 0.00 57 1010.7
20260506102606 68 0.0 0.0 0.00 0.00 0.00 56 1010.7
20260506102105 68 0.0 0.0 0.00 0.00 0.00 57 1010.7
20260506101605 68 0.0 0.0 0.00 0.00 0.00 58 1010.7
20260506100534 68 0.0 0.0 0.00 0.00 0.00 57 1010.7
20260506095502 68 0.0 0.0 0.00 0.00 0.00 58 1010.8
20260506095002 68 0.0 0.0 0.00 0.00 0.00 59 1010.8
20260506092257 67 0.0 0.0 0.00 0.00 0.00 61 1010.9